Temp
66 66 66 67 67 67 67 67 68 69 70 70 70 71 71 71 72 71 71 70 70 68 68 68 67 67 69 68 67 67 68 67 68 68 67 67 66 67 66 66 65 64
65 65 65 66 66 67 67 67 67 68 69 70 70 71 71 71 71 71 69 69 70 69 69 68 67 67 68 66 65 66 66 65 65 67 66 67 67 66 66 66 65 65
64 64 64 64 64 64 65 66 66 67 68 70 71 71 71 71 71 71 69 69 69 69 68 67 66 66 67 66 66 65 65 65 65 66 65 65 65 66 67 67 66 66
64 64 64 64 64 64 64 64 66 67 68 68 69 70 71 71 71 70 70 70 69 68 68 68 67 67 66 65 65 64 65 65 65 66 65 65 65 65 66 68 66 66
63 63 64 64 64 64 64 64 64 64 65 66 68 69 70 70 70 70 69 68 68 68 67 67 67 66 66 64 64 63 64 64 65 65 64 63 64 64 65 65 65 65
64 64 64 64 63 63 63 63 63 64 64 65 66 68 69 70 70 70 69 68 67 67 66 66 66 66 65 64 64 64 64 64 64 65 64 64 64 64 65 63 65 66
63 63 63 63 63 63 62 62 62 62 63 64 65 65 67 69 69 69 69 67 67 66 66 66 65 65 66 65 64 64 64 64 64 64 63 63 63 64 65 66 68 69
63 64 63 63 62 62 62 62 62 61 62 63 63 64 66 67 68 68 68 68 67 66 66 65 65 65 65 65 64 63 63 64 64 64 64 64 63 64 64 64 67 69
64 64 64 63 62 62 61 62 62 61 61 61 62 63 64 65 65 66 66 66 65 65 65 64 64 64 64 64 63 63 63 63 63 64 64 63 63 64 64 65 64 65
63 63 63 62 61 61 61 61 61 60 60 59 60 61 62 63 64 63 63 63 62 64 64 64 64 64 64 63 64 63 63 64 64 63 63 63 63 64 64 63 63 64
62 63 62 62 61 61 61 61 61 60 59 58 58 59 60 60 61 62 60 60 59 62 63 63 63 63 63 63 64 64 64 63 64 63 63 63 63 64 64 64 64 64
62 62 62 61 61 61 61 61 61 59 58 57 58 57 58 58 58 59 59 58 58 59 64 63 63 62 61 62 64 63 63 63 62 62 62 63 63 64 64 64 64 64
62 62 62 61 61 61 61 61 60 59 58 57 57 56 56 56 57 57 58 57 57 58 56 53 52 50 49 50 54 61 63 63 62 63 64 64 64 64 65 65 64 65
61 62 62 61 62 62 61 60 60 59 59 58 57 55 55 55 55 55 56 56 56 56 54 52 50 48 46 46 48 51 55 60 62 62 62 62 63 63 64 64 64 64
60 61 61 61 61 61 60 60 59 59 59 58 57 55 54 55 55 55 54 54 54 55 54 51 48 46 45 44 44 45 50 55 58 60 62 62 63 63 63 64 64 64
61 60 61 60 60 59 59 59 59 58 58 58 57 56 55 54 54 54 53 52 52 52 53 50 47 46 45 43 42 43 45 49 53 57 59 62 62 62 63 64 64 64
60 60 60 59 59 59 59 59 58 58 58 58 57 56 55 54 53 52 52 52 51 50 50 50 47 45 42 40 40 41 43 45 49 54 58 61 62 62 61 62 63 64
60 60 60 59 58 58 58 58 58 58 57 57 57 56 56 55 52 51 51 51 50 50 49 48 47 44 40 40 40 39 41 43 46 52 57 59 62 62 62 62 62 62
61 61 59 58 58 58 58 58 57 57 56 56 56 57 57 55 53 51 50 50 50 49 48 48 47 42 40 40 40 39 39 41 46 52 56 58 61 62 63 63 61 61
60 60 59 59 58 58 57 57 56 55 55 56 56 56 55 55 54 52 51 50 49 48 48 48 47 42 40 40 39 39 39 41 50 55 58 60 62 64 64 62 61 60
59 59 59 59 59 59 58 57 55 55 55 55 55 55 54 54 54 53 52 51 50 48 47 46 46 41 40 40 39 39 39 42 50 53 57 60 63 64 64 60 61 62
58 58 58 59 59 58 58 57 56 55 54 55 55 55 54 54 54 54 53 52 51 48 47 46 46 41 41 40 40 39 40 46 49 52 56 58 60 62 63 59 57 57
58 58 57 58 58 57 57 56 56 55 56 56 55 54 53 53 52 53 53 52 51 49 46 46 46 43 41 40 40 39 40 44 48 52 55 56 57 58 59 54 53 52
59 58 57 57 57 57 56 56 56 56 56 57 55 54 53 53 53 52 52 52 51 49 48 46 46 45 41 41 40 40 41 43 47 48 50 53 54 55 56 54 53 50
58 58 58 57 57 56 56 55 55 56 56 57 56 56 54 54 53 52 51 51 51 50 49 47 46 46 42 40 40 40 41 43 43 44 46 49 50 50 51 49 49 49
58 58 57 57 57 56 56 56 56 56 55 55 55 56 55 54 53 52 51 50 50 49 48 47 46 46 44 41 41 40 40 42 42 41 42 45 46 45 45 45 44 44
MSLP
1017.57 1017.45 1017.37 1017.17 1017.01 1016.85 1016.77 1016.65 1016.29 1015.93 1015.61 1015.37 1015.25 1014.93 1014.73 1014.49 1014.25 1014.25 1014.21 1014.17 1014.17 1014.13 1014.05 1014.01 1013.89 1013.97 1013.93 1013.97 1014.05 1014.13 1013.97 1013.97 1013.81 1013.73 1013.81 1013.93 1014.09 1014.13 1014.41 1014.61 1014.77 1014.85
1017.85 1017.69 1017.49 1017.25 1017.09 1016.93 1016.77 1016.69 1016.53 1016.25 1015.77 1015.37 1015.13 1014.89 1014.61 1014.45 1014.25 1014.17 1014.29 1014.41 1013.93 1013.81 1013.73 1013.69 1013.57 1013.49 1013.57 1013.73 1014.01 1014.21 1014.01 1014.09 1014.13 1013.85 1013.89 1013.89 1013.89 1014.01 1014.13 1014.29 1014.45 1014.57
1018.05 1017.89 1017.65 1017.57 1017.49 1017.33 1017.21 1016.85 1016.49 1016.17 1015.85 1015.33 1014.93 1014.81 1014.65 1014.41 1014.21 1014.05 1013.97 1013.97 1013.81 1013.57 1013.49 1013.45 1013.37 1013.17 1013.25 1013.41 1013.73 1014.01 1014.09 1014.01 1013.81 1013.85 1014.01 1014.09 1014.01 1013.89 1013.85 1013.97 1014.13 1014.33
1018.21 1018.01 1017.85 1017.69 1017.61 1017.61 1017.45 1017.17 1016.77 1016.33 1015.97 1015.61 1015.21 1014.77 1014.53 1014.29 1014.17 1013.97 1013.81 1013.73 1013.65 1013.49 1013.37 1013.33 1013.25 1013.25 1013.25 1013.41 1013.57 1013.81 1013.53 1013.41 1013.25 1013.29 1013.65 1013.81 1013.77 1013.89 1013.77 1013.73 1013.85 1014.09
1018.37 1018.17 1017.97 1017.85 1017.73 1017.65 1017.53 1017.33 1017.05 1016.77 1016.45 1016.05 1015.53 1015.05 1014.61 1014.29 1014.13 1013.93 1013.89 1013.85 1013.65 1013.45 1013.37 1013.33 1013.17 1013.17 1013.17 1013.33 1013.53 1013.57 1013.49 1013.37 1013.13 1013.21 1013.37 1013.53 1013.73 1014.05 1014.01 1013.93 1013.89 1013.97
1018.41 1018.33 1018.21 1018.09 1017.97 1017.85 1017.69 1017.57 1017.33 1017.05 1016.73 1016.33 1015.93 1015.33 1014.85 1014.33 1014.13 1014.05 1013.93 1013.89 1013.65 1013.49 1013.33 1013.17 1013.13 1013.01 1013.01 1012.93 1012.97 1013.05 1013.13 1013.17 1013.09 1013.21 1013.37 1013.37 1013.53 1013.85 1014.17 1014.45 1014.09 1013.69
1018.53 1018.45 1018.41 1018.21 1018.13 1017.97 1017.89 1017.81 1017.61 1017.37 1017.05 1016.65 1016.21 1015.85 1015.29 1014.69 1014.29 1014.01 1013.85 1013.77 1013.69 1013.49 1013.21 1013.01 1012.97 1012.85 1012.73 1012.69 1012.65 1012.69 1012.77 1012.93 1013.09 1013.21 1013.37 1013.45 1013.29 1013.33 1013.61 1013.69 1013.29 1013.13
1018.61 1018.49 1018.37 1018.29 1018.25 1018.17 1018.09 1017.97 1017.81 1017.69 1017.33 1016.93 1016.57 1016.09 1015.57 1015.05 1014.49 1014.13 1013.93 1013.77 1013.65 1013.37 1012.97 1012.73 1012.69 1012.61 1012.49 1012.41 1012.41 1012.53 1012.53 1012.77 1012.89 1013.05 1013.05 1013.17 1013.13 1013.09 1013.13 1013.61 1013.29 1012.77
1018.61 1018.53 1018.37 1018.33 1018.37 1018.33 1018.29 1018.13 1017.93 1017.85 1017.69 1017.29 1016.81 1016.37 1015.89 1015.41 1015.05 1014.69 1014.41 1014.09 1013.69 1013.21 1012.81 1012.57 1012.53 1012.45 1012.41 1012.33 1012.37 1012.41 1012.45 1012.61 1012.77 1012.89 1012.85 1012.93 1013.21 1013.13 1013.13 1013.37 1013.53 1012.93
1018.73 1018.61 1018.49 1018.49 1018.57 1018.49 1018.45 1018.29 1018.13 1018.09 1018.01 1017.65 1017.25 1016.77 1016.29 1015.85 1015.53 1015.21 1014.81 1014.41 1013.85 1013.13 1012.69 1012.53 1012.49 1012.45 1012.45 1012.53 1012.49 1012.37 1012.33 1012.45 1012.57 1012.89 1013.05 1013.13 1013.17 1013.13 1013.21 1013.53 1013.73 1013.33
1018.85 1018.73 1018.65 1018.69 1018.69 1018.61 1018.53 1018.33 1018.29 1018.29 1018.25 1018.05 1017.65 1017.29 1016.89 1016.45 1015.97 1015.49 1015.17 1014.77 1014.29 1013.37 1012.81 1012.69 1012.65 1012.69 1012.61 1012.53 1012.49 1012.45 1012.53 1012.65 1012.61 1012.73 1012.73 1012.77 1012.89 1012.85 1012.97 1013.21 1013.53 1013.41
1019.13 1018.97 1018.89 1018.85 1018.77 1018.73 1018.69 1018.57 1018.45 1018.45 1018.49 1018.29 1018.01 1017.69 1017.33 1017.01 1016.61 1016.09 1015.73 1015.41 1014.93 1014.09 1013.21 1013.09 1012.97 1013.05 1013.09 1012.93 1012.61 1012.49 1012.61 1012.61 1012.65 1012.69 1012.33 1012.21 1012.33 1012.49 1012.61 1012.85 1013.17 1013.33
1019.45 1019.29 1019.13 1018.97 1018.89 1018.93 1018.85 1018.73 1018.65 1018.61 1018.53 1018.49 1018.37 1018.17 1017.77 1017.41 1017.05 1016.61 1016.21 1015.93 1015.61 1015.05 1015.09 1015.13 1014.97 1014.85 1014.73 1014.73 1014.09 1013.09 1012.69 1012.57 1012.61 1012.49 1012.21 1012.09 1012.13 1012.25 1012.37 1012.49 1012.93 1012.93
1019.85 1019.65 1019.49 1019.41 1019.25 1019.09 1019.05 1019.01 1018.89 1018.77 1018.69 1018.65 1018.65 1018.49 1018.25 1017.93 1017.57 1017.21 1016.81 1016.49 1016.13 1015.81 1015.93 1015.89 1015.73 1015.57 1015.61 1015.57 1015.29 1014.77 1013.81 1012.97 1012.49 1012.33 1012.29 1012.21 1012.09 1012.09 1012.13 1012.29 1012.57 1012.85
1020.25 1020.13 1019.97 1019.85 1019.65 1019.49 1019.37 1019.29 1019.17 1019.09 1018.93 1018.81 1018.85 1018.89 1018.73 1018.45 1018.09 1017.69 1017.37 1017.01 1016.65 1016.41 1016.29 1016.57 1016.77 1016.81 1016.81 1016.77 1016.37 1015.77 1014.89 1013.81 1013.17 1012.77 1012.37 1012.17 1012.09 1011.97 1011.73 1011.73 1011.97 1012.45
1020.49 1020.37 1020.21 1020.17 1020.05 1019.85 1019.73 1019.61 1019.49 1019.37 1019.25 1019.01 1018.89 1018.89 1018.89 1018.65 1018.41 1018.13 1017.97 1017.77 1017.45 1017.13 1016.81 1016.93 1017.25 1017.41 1017.53 1017.33 1017.09 1016.69 1015.77 1014.73 1013.81 1013.13 1012.65 1012.21 1011.97 1011.89 1011.81 1011.61 1011.65 1012.21
1020.65 1020.61 1020.53 1020.49 1020.45 1020.37 1020.17 1019.97 1019.81 1019.65 1019.49 1019.21 1019.01 1018.89 1018.81 1018.85 1018.65 1018.57 1018.45 1018.29 1018.17 1017.93 1017.57 1017.33 1017.65 1017.93 1017.81 1017.37 1016.89 1016.53 1016.05 1015.33 1014.41 1013.37 1012.69 1012.21 1011.93 1011.85 1011.81 1011.81 1011.89 1012.05
1020.77 1020.73 1020.73 1020.77 1020.77 1020.69 1020.57 1020.33 1020.09 1019.93 1019.77 1019.53 1019.25 1019.01 1018.85 1018.93 1019.01 1019.01 1018.93 1018.73 1018.57 1018.45 1018.21 1018.05 1017.97 1018.05 1017.73 1017.29 1016.93 1016.49 1016.09 1015.57 1014.61 1013.61 1012.81 1012.29 1011.89 1011.73 1011.69 1011.81 1011.93 1012.01
1020.81 1020.69 1020.81 1020.89 1020.97 1020.97 1020.89 1020.69 1020.49 1020.33 1020.13 1019.85 1019.57 1019.33 1019.13 1018.93 1019.21 1019.29 1019.21 1019.21 1019.17 1018.97 1018.69 1018.41 1018.33 1018.37 1017.93 1017.49 1016.97 1016.49 1015.93 1015.33 1014.37 1013.41 1012.77 1012.21 1011.89 1011.65 1011.61 1011.65 1012.01 1012.21
1021.25 1021.13 1020.85 1020.81 1020.93 1020.97 1020.97 1020.97 1020.89 1020.77 1020.61 1020.33 1020.01 1019.73 1019.49 1019.29 1019.17 1019.33 1019.41 1019.41 1019.41 1019.37 1019.29 1019.01 1018.77 1018.81 1018.33 1017.77 1017.17 1016.65 1016.09 1015.29 1014.13 1013.17 1012.61 1012.17 1011.93 1011.69 1011.53 1011.73 1011.97 1011.97
1021.61 1021.33 1021.09 1020.89 1020.77 1020.77 1020.77 1020.85 1020.97 1020.89 1020.73 1020.57 1020.41 1020.21 1020.01 1019.77 1019.57 1019.41 1019.49 1019.53 1019.65 1019.69 1019.57 1019.45 1019.37 1019.33 1018.69 1018.05 1017.45 1016.89 1016.13 1015.21 1014.37 1013.57 1012.85 1012.29 1011.93 1011.69 1011.57 1011.65 1011.65 1011.53
1021.93 1021.77 1021.57 1021.29 1021.05 1020.97 1020.85 1020.81 1020.85 1020.85 1020.77 1020.69 1020.61 1020.61 1020.53 1020.41 1020.17 1019.85 1019.77 1019.73 1019.77 1019.97 1019.85 1019.73 1019.61 1019.45 1019.05 1018.61 1017.97 1017.17 1016.33 1015.33 1014.65 1013.93 1013.29 1012.73 1012.33 1011.93 1011.69 1012.01 1012.09 1012.01
1022.17 1022.09 1021.89 1021.61 1021.45 1021.41 1021.25 1021.09 1020.93 1020.89 1020.77 1020.69 1020.65 1020.73 1020.81 1020.81 1020.73 1020.49 1020.29 1020.17 1020.05 1020.17 1020.17 1020.01 1019.77 1019.61 1019.33 1018.97 1018.49 1017.81 1016.73 1015.93 1015.09 1014.29 1013.69 1013.21 1012.93 1012.65 1012.29 1012.77 1012.97 1013.05
1022.41 1022.33 1022.25 1022.01 1021.81 1021.77 1021.69 1021.61 1021.45 1021.29 1021.13 1020.81 1020.77 1020.81 1020.93 1021.05 1021.05 1020.93 1020.77 1020.65 1020.61 1020.45 1020.45 1020.41 1020.21 1019.97 1019.77 1019.37 1018.89 1018.45 1017.81 1016.89 1015.97 1015.45 1014.77 1014.09 1013.53 1013.29 1012.97 1013.17 1013.29 1013.45
1022.69 1022.61 1022.49 1022.29 1022.17 1022.13 1022.09 1022.05 1021.97 1021.77 1021.65 1021.33 1021.05 1020.89 1021.01 1021.13 1021.17 1021.17 1021.13 1021.01 1021.01 1020.97 1020.89 1020.77 1020.69 1020.33 1020.05 1019.77 1019.33 1018.89 1018.33 1017.73 1017.25 1016.61 1015.85 1014.93 1014.53 1014.17 1013.97 1014.13 1013.97 1013.77
1022.77 1022.77 1022.73 1022.65 1022.57 1022.49 1022.45 1022.41 1022.37 1022.25 1022.09 1021.85 1021.57 1021.29 1021.17 1021.29 1021.33 1021.37 1021.37 1021.29 1021.21 1021.21 1021.25 1021.21 1021.09 1020.81 1020.49 1020.21 1019.81 1019.37 1019.01 1018.53 1017.97 1017.45 1016.85 1016.17 1015.89 1015.53 1015.05 1014.93 1014.85 1014.57
Wind_Speed
7 7 6 6 6 6 7 9 10 9 7 7 8 8 7 6 7 6 4 3 4 4 5 6 7 7 7 5 6 9 6 7 7 6 7 8 9 9 8 9 8 8
9 9 8 7 6 7 8 8 9 11 10 8 7 8 7 7 7 7 6 9 6 4 4 5 5 6 6 4 4 8 4 4 7 5 6 9 9 8 8 10 9 7
9 9 9 9 9 10 10 11 10 9 9 10 9 7 7 6 7 7 5 6 7 6 5 5 8 9 8 6 6 6 4 4 7 6 7 7 8 8 8 8 8 9
9 9 8 8 8 9 10 10 10 10 11 11 11 9 8 8 7 8 6 7 7 7 6 7 7 7 6 7 8 6 6 7 8 6 6 4 5 6 8 7 7 8
9 10 9 9 8 9 9 10 11 11 12 12 12 13 11 9 8 8 7 6 8 8 7 7 7 7 6 6 8 8 7 6 7 5 5 6 6 6 6 5 8 9
8 9 10 11 10 9 9 11 12 12 12 12 13 12 13 13 10 9 9 9 8 8 9 8 8 8 7 9 9 8 7 7 6 4 5 6 6 6 8 9 10 9
9 8 10 9 10 9 10 11 10 12 12 11 12 12 13 13 11 10 9 8 10 9 10 9 9 9 8 8 9 9 5 4 5 6 7 7 5 6 8 10 11 10
8 8 7 9 10 9 10 11 11 11 12 12 11 12 13 14 12 10 9 11 11 11 11 10 8 8 8 7 7 7 7 5 6 8 7 8 7 7 7 7 9 9
8 8 9 9 10 9 11 11 10 11 13 12 12 12 12 13 14 15 15 14 14 13 11 10 9 8 6 5 3 6 6 5 7 6 7 5 6 7 7 9 11 9
10 9 9 10 11 9 11 10 11 11 12 12 13 12 14 12 13 14 14 14 15 14 11 9 8 6 5 4 5 6 8 6 3 4 7 8 6 6 6 8 10 8
10 10 10 11 10 9 11 11 11 11 11 13 13 13 13 13 13 13 13 14 14 16 10 8 7 7 8 5 3 3 3 3 4 3 4 5 6 5 7 9 9 10
11 10 10 10 10 10 11 11 11 12 12 12 13 14 13 13 14 14 12 14 15 17 12 12 11 13 14 13 8 4 3 4 6 7 7 6 6 5 4 6 4 9
11 11 11 10 10 11 10 11 11 11 13 13 13 13 13 14 14 15 13 12 14 15 18 16 15 13 13 15 15 13 8 5 4 4 5 4 4 6 5 3 5 8
12 12 12 12 11 11 11 12 12 12 12 12 13 14 14 15 15 15 14 13 13 13 12 12 13 15 15 14 14 12 11 10 7 6 6 6 6 6 4 4 4 6
10 10 10 12 13 12 12 13 12 12 12 12 12 12 12 14 14 14 15 16 15 14 12 12 14 13 12 13 13 14 11 10 9 9 7 5 5 5 5 5 4 7
11 10 11 11 12 13 13 12 12 12 11 12 13 12 11 12 14 14 15 15 16 16 14 10 10 9 20 22 16 12 11 10 9 8 8 7 5 4 4 3 3 5
10 11 11 13 12 12 12 13 13 12 11 12 11 11 10 10 11 14 15 14 14 14 15 12 10 13 25 21 21 21 13 10 9 8 7 7 5 3 4 4 4 2
10 11 12 13 12 13 14 12 12 12 12 12 11 12 11 7 10 11 12 13 11 14 13 14 12 24 27 24 22 21 18 11 8 6 7 6 6 4 3 2 2 3
11 11 12 12 13 13 12 13 14 14 13 12 13 11 11 11 8 9 11 12 13 14 13 13 12 25 27 27 24 23 23 17 7 7 6 7 6 6 5 2 1 3
12 12 11 10 10 10 11 12 13 13 12 11 10 12 11 11 10 9 8 10 11 11 11 12 11 24 26 27 26 25 23 18 9 9 7 6 6 6 5 2 2 4
12 12 12 12 12 11 9 10 10 10 11 10 10 11 12 12 12 10 10 9 8 9 9 11 10 25 26 28 27 26 25 15 9 9 8 8 7 7 4 1 5 5
12 12 12 12 12 12 12 11 9 9 8 8 8 9 10 11 12 11 11 12 10 9 8 10 11 23 26 26 28 28 26 11 8 9 9 9 10 11 8 7 8 7
12 12 12 12 13 13 13 12 11 10 8 7 8 9 10 11 11 11 11 12 13 9 10 12 12 20 25 26 26 29 23 12 11 9 10 10 10 10 5 6 7 9
12 12 12 12 12 13 13 12 12 11 11 9 8 9 10 10 10 10 11 11 14 13 12 12 13 18 24 24 26 26 23 13 12 12 12 10 10 11 9 7 9 16
10 10 10 11 12 12 12 12 12 11 11 11 10 8 8 8 8 9 9 10 11 13 18 15 13 16 22 24 25 25 22 11 13 9 10 11 10 11 10 10 10 12
9 10 10 11 12 11 11 11 10 10 12 12 10 10 8 8 9 9 10 9 9 11 12 13 13 14 18 22 23 24 25 17 12 11 14 12 11 10 9 10 11 11
Wind_Direction
354 350 343 330 330 337 338 334 327 319 314 315 316 314 313 313 304 300 281 272 261 264 273 279 283 277 272 246 263 262 242 242 239 226 215 208 214 199 198 196 191 188
353 344 336 338 339 343 341 337 329 324 320 315 311 307 308 310 304 302 323 305 285 264 251 248 258 274 269 280 291 268 270 287 288 277 237 213 209 198 200 195 197 189
348 343 346 348 350 350 344 335 326 318 312 312 308 312 306 299 294 293 286 277 286 285 283 271 270 270 269 260 260 268 259 258 247 240 255 237 234 217 202 196 200 195
348 347 343 347 350 351 343 331 328 331 331 327 324 324 323 315 310 301 301 298 285 283 281 284 276 278 282 283 275 267 236 236 248 235 241 276 275 249 211 200 197 196
356 350 350 351 353 348 342 340 342 340 335 330 327 329 322 323 320 317 316 303 293 290 293 290 281 267 270 286 281 258 245 242 245 246 224 227 226 248 264 243 204 198
2 359 359 355 352 350 349 352 346 340 335 331 329 326 326 323 325 325 320 314 303 299 295 287 277 269 246 244 241 240 232 225 224 221 227 227 227 215 222 226 229 203
12 8 2 359 354 355 356 353 350 345 340 334 333 332 327 321 325 324 323 318 310 301 296 291 283 280 261 243 241 236 231 224 236 257 257 255 233 231 233 237 221 209
15 17 1 7 0 0 358 355 353 350 345 341 337 335 334 327 331 337 335 329 318 306 296 293 290 289 270 247 244 235 222 216 229 229 229 225 228 239 238 250 247 212
15 13 7 15 11 3 2 359 353 0 351 346 346 346 343 346 352 350 346 336 323 307 291 287 288 286 276 257 230 277 270 214 219 243 259 252 244 247 249 245 241 232
21 11 10 20 14 9 2 3 359 4 355 351 353 353 351 353 351 350 346 339 328 316 303 293 288 293 301 288 266 252 256 272 306 224 245 256 270 269 261 270 275 263
17 9 18 20 16 11 2 7 10 6 4 357 355 357 357 353 350 348 347 346 338 331 327 330 335 322 308 303 279 286 327 301 246 251 258 244 232 231 249 253 238 234
15 11 15 19 13 16 12 7 11 13 9 3 0 359 359 358 354 352 351 348 347 338 352 355 360 7 7 350 330 296 294 293 304 287 280 268 267 273 263 266 247 228
12 11 12 12 16 20 13 12 13 14 14 11 5 0 1 2 356 354 353 347 351 5 25 24 27 24 18 8 351 348 340 305 283 267 265 278 276 266 269 267 263 248
16 10 10 12 10 15 18 14 13 13 14 16 11 8 4 3 359 357 355 355 360 6 21 20 18 21 16 5 358 349 343 341 325 302 279 269 261 266 270 271 279 272
17 14 13 13 12 12 15 15 13 14 12 15 19 14 8 4 1 2 1 2 359 2 14 29 26 17 13 1 352 347 341 332 328 324 314 289 277 272 253 247 247 266
20 17 18 18 15 14 15 14 14 15 12 11 17 18 14 6 5 4 7 4 3 5 3 28 26 19 2 359 359 349 333 332 328 329 326 310 290 281 290 279 243 236
27 21 19 21 17 15 13 14 13 14 12 10 15 18 18 13 9 11 8 4 5 4 4 12 20 6 359 359 354 352 347 331 323 315 311 307 294 293 289 290 309 270
32 23 24 23 20 18 14 12 12 15 15 8 9 12 13 19 18 17 10 4 4 4 6 5 12 2 359 357 355 350 345 329 302 301 309 308 303 281 265 278 296 311
17 26 32 28 24 21 15 16 13 15 11 7 9 7 7 14 25 16 21 13 6 3 359 1 10 2 358 356 354 351 345 337 300 295 301 305 312 312 302 276 109 286
23 16 14 33 33 27 25 22 18 16 12 6 5 5 7 8 13 22 24 22 12 5 1 359 9 1 359 357 355 351 345 336 309 317 303 302 301 297 287 24 354 291
18 13 14 19 20 25 28 34 27 21 17 12 9 6 7 4 3 13 17 18 17 11 5 4 9 6 3 359 357 352 345 335 326 326 324 323 319 311 326 192 259 264
20 17 14 15 18 18 20 22 30 23 21 18 20 18 15 8 1 6 10 12 17 14 6 7 7 9 6 3 359 355 347 340 334 332 336 340 349 348 10 25 16 5
23 19 14 12 21 21 17 13 16 17 15 20 25 28 23 18 6 6 6 9 12 18 11 9 8 10 6 4 3 0 356 345 339 336 344 355 0 350 15 57 32 11
22 21 19 14 19 23 20 17 14 16 9 0 17 30 30 25 13 9 9 11 13 13 15 13 7 10 7 4 4 4 3 350 355 355 352 358 358 2 23 36 34 32
30 20 19 17 21 23 23 22 15 11 11 4 4 17 31 30 22 13 13 15 19 14 12 13 12 8 7 6 7 7 7 357 3 352 354 359 6 1 14 19 10 10
30 26 23 22 20 20 28 27 18 15 11 7 7 6 18 32 25 20 14 15 19 20 19 16 13 10 8 7 9 11 10 10 7 7 6 6 11 5 3 11 7 3